Flag for India Weather past 2 weeks in Hoshiarpur, Punjab, India

Now
84 °F

Fog.


Feels Like: 96 °F
Forecast: 76 / 97 °F
Wind: No wind

Location: Amritsar Airport

Current Time: Sep 2, 2015 at 12:33:07 AM

Latest Report: Sep 1, 2015 at 11:30 PM


Visibility: 2 mi

Pressure: 29.59 "Hg

Humidity: 84%

Dew point: 79 °F

Location of HoshiarpurLocation

Historic Weather in Hoshiarpur — Graph

°F

Hoshiarpur temperature yesterday

Maximum temperature yesterday: 95 °F (at 1:30 PM)
Minimum temperature yesterday: 79 °F (at 6:00 AM)
Average temperature yesterday: 87 °F

Past Weeks' High & Low Weather Summary

 TemperatureHumidityPressure
High97 °F (Aug 27, 1:00 PM)100% (Aug 18, 5:30 AM)29.71 "Hg (Aug 18, 5:30 AM)
Low75 °F (Aug 21, 5:00 PM)44% (Aug 29, 1:30 PM)29.53 "Hg (Aug 20, 5:00 PM)
Average86 °F81%29.61 "Hg
* Reported Aug 17 10:30 PM — Sep 1 11:00 PM, Hoshiarpur, Weather by CustomWeather, © 2015

Note: Actual official high and low records may vary slightly from our data, if they occured in-between our weather recording intervals... More about our weather records

Advertising

Hoshiarpur weather history for previous 24 hours

 ConditionsComfort  
Time TempWeatherWind HumidityBarometerVisibility
11:00 PM
Tue, Sep 1
84 °FFog.No wind84%29.59 "Hg2 mi
10:30 PM84 °FFog.No wind84%29.59 "Hg2 mi
10:00 PM84 °FFog.No wind84%29.59 "Hg3 mi
9:30 PM86 °FFog.No wind79%29.59 "Hg3 mi
9:00 PM86 °FFog.No wind79%29.59 "Hg3 mi
8:30 PM86 °FFog.No wind79%29.59 "Hg3 mi
8:00 PM88 °FFog.No wind75%29.56 "Hg3 mi
7:30 PM88 °FHaze.No wind75%29.56 "Hg3 mi
7:00 PM90 °FHaze.No wind71%29.56 "Hg3 mi
6:30 PM90 °FHaze.No wind67%29.56 "Hg3 mi
6:00 PM91 °FHaze.No wind63%29.56 "Hg3 mi
5:30 PM93 °FHaze.No wind59%29.56 "Hg3 mi
4:30 PM93 °FHaze.1 mph53%29.56 "Hg3 mi
4:00 PM93 °FHaze.2 mph53%29.56 "Hg3 mi
3:30 PM95 °FHaze.2 mph53%29.56 "Hg3 mi
3:00 PM95 °FHaze.7 mph50%29.56 "Hg3 mi
2:30 PM93 °FHaze.6 mph56%29.59 "Hg3 mi
2:00 PM93 °FHaze.6 mph56%29.59 "Hg3 mi
1:30 PM95 °FHaze.3 mph53%29.59 "Hg3 mi
12:30 PM93 °FHaze.3 mph59%29.62 "Hg3 mi
12:00 PM93 °FHaze.3 mph56%29.62 "Hg3 mi
11:30 AM91 °FHaze.3 mph63%29.62 "Hg3 mi
11:00 AM91 °FHaze.No wind59%29.62 "Hg2 mi
10:30 AM91 °FHaze.No wind63%29.62 "Hg2 mi
10:00 AM91 °FHaze.No wind59%29.62 "Hg2 mi
9:00 AM88 °FFog.No wind70%29.62 "Hg2 mi
8:00 AM84 °FFog.No wind89%29.59 "Hg1 mi
7:30 AM82 °FFog.No wind89%29.59 "Hg1 mi
7:00 AM81 °FFog.No wind94%29.59 "Hg1 mi
6:30 AM81 °FFog.No wind94%29.59 "Hg1 mi
6:00 AM79 °FFog.No wind100%29.59 "Hg1 mi
5:30 AM81 °FFog.No wind94%29.59 "Hg1 mi
5:00 AM81 °FFog.No wind94%29.59 "Hg1 mi
4:30 AM81 °FFog.No wind94%29.59 "Hg2 mi
2:00 AM82 °FFog.No wind89%29.59 "Hg2 mi
1:30 AM81 °FFog.No wind94%29.59 "Hg2 mi
12:30 AM82 °FFog.No wind89%29.62 "Hg2 mi
12:00 AM82 °FFog.No wind89%29.62 "Hg2 mi
Weather by CustomWeather, © 2015

See weather overviewHow to use our weather pages